レモン-サイディング・スプリング彗星

C/2008 FK75 ( Lemmon-Siding Spring )

English version
Home page
Updated on January 23, 2012

---------------------------------------------------------------------

・ プロフィール

発見日 2008年5月31日、7月1日
発見光度 19.4等、18.9等
発見者 Mt. Lemmon Survey, Siding Spring Survey

・ 写真集

・ 軌道要素

Epoch 2010 Oct. 11.0 TT = JDT 2455480.5
T 2010 Sept. 29.25773 TT                                MPC
q   4.5108657            (2000.0)            P               Q
z  -0.0005654      Peri.   80.42057     +0.16378114     +0.82386070
 +/-0.0000002      Node   218.26849     -0.78064212     +0.44452834
e   1.0025506      Incl.   61.17603     +0.60313649     +0.35163632
From 3039 observations 2008 Mar. 31-2011 Dec. 2, mean residual 0".5.

・ 星図

・ 光度変化

        m1 = 5.5 + 5 logΔ + 10.0 log r

---------------------------------------------------------------------

軌道要素はM.P.E.C. 2011-X25に掲載されたものです。
星図はステラナビゲータ Ver.8 (アストロアーツ) で作成したものです。
光度グラフはComet for Windowsで作成したものです。

---------------------------------------------------------------------

Copyright(C) Seiichi Yoshida (comet@aerith.net). All rights reserved.